Location: ??? ????
(38.0580°N, 23.1536°E)
Time: 14:18:46
(UTC+00:00)

GEOS 3 Rocket - Pass Details

Date: 13 December 2025
Orbit: 769 x 844 km, 115.0° (Epoch: 17 January)

Event Time Altitude Azimuth Distance (km) Brightness Sun altitude
Exits shadow 15:38:11 - 32° (NNE) 3,231 6.2 -6.1°
Reaches altitude 10° 15:40:05 10° 32° (NNE) 2,467 5.6 -6.4°
Maximum altitude 15:45:28 79° 307° (NW) 863 3.9 -7.4°
Drops below altitude 10° 15:50:49 10° 221° (SW) 2,449 7.3 -8.4°
Sets 15:53:07 0° 220° (SW) 3,375 8.1 -8.8°
